Location: Newark
(33.6333°S, 78.8500°W)
Time: 13:37:41
(UTC+00:00)

ISS - Pass Details

Date: 21 August 2019
Orbit: 411 x 421 km, 51.6° (Epoch: 23 September)

Event Time Altitude Azimuth Distance (km) Brightness Sun altitude
Rises 00:21:27 0° 303° (WNW) 2,362 1.1 -19.7°
Reaches altitude 10° 00:23:35 10° 297° (WNW) 1,502 0.0 -20.2°
Maximum altitude 00:26:52 49° 221° (SW) 555 -3.0 -20.9°
Enters shadow 00:27:20 45° 191° (SSW) 590 -3.0 -20.9°
